Emporia, Virginia, United States (23847)
Lat: 36.69N, Lon: 77.54W
Wx Zone: VAZ087
Local Info
Past Weather Observations for Sunday, August 23, 2015

NOTE: This archive is for the closest National Weather Service station to Emporia. Information may differ from the station used for current weather conditions.

Click here for Long-term Archive

Time Weather Temperature Dewpoint Humidity Pressure Winds Precip Visibility
23:55
Mostly Cloudy
66°F / 19°C 63°F / 17°C 88% 29.98 in
(1015 mb)
Calm - 10SM
23:35
Clear
68°F / 20°C 64°F / 18°C 88% 29.98 in
(1015 mb)
Calm - 10SM
23:15
Partly Cloudy
68°F / 20°C 64°F / 18°C 88% 29.98 in
(1015 mb)
Calm - 10SM
22:55
Overcast
68°F / 20°C 64°F / 18°C 88% 29.98 in
(1015 mb)
Calm - 10SM
22:35
Mostly Cloudy
64°F / 18°C 64°F / 18°C 100% 29.98 in
(1015 mb)
Calm - 10SM
22:15
Partly Cloudy
66°F / 19°C 64°F / 18°C 94% 29.98 in
(1015 mb)
Calm - 10SM
21:55
Clear
64°F / 18°C 64°F / 18°C 100% 29.98 in
(1015 mb)
Calm - 10SM
19:15
Clear
70°F / 21°C 64°F / 18°C 83% 29.95 in
(1014 mb)
Calm - 10SM
18:55
Clear
72°F / 22°C 66°F / 19°C 83% 29.95 in
(1014 mb)
Calm - 10SM
18:35
Clear
75°F / 24°C 66°F / 19°C 74% 29.95 in
(1014 mb)
Calm - 10SM
18:15
Clear
77°F / 25°C 68°F / 20°C 74% 29.95 in
(1014 mb)
Calm - 10SM
17:55
Clear
81°F / 27°C 64°F / 18°C 58% 29.95 in
(1014 mb)
Calm - 10SM
17:35
Clear
82°F / 28°C 63°F / 17°C 51% 29.95 in
(1014 mb)
Calm - 10SM
17:15
Clear
82°F / 28°C 63°F / 17°C 51% 29.95 in
(1014 mb)
Calm - 10SM
16:55
Clear
82°F / 28°C 63°F / 17°C 51% 29.98 in
(1015 mb)
Calm - 10SM
16:35
Clear
82°F / 28°C 61°F / 16°C 48% 29.98 in
(1015 mb)
Calm - 10SM
16:15
Clear
82°F / 28°C 63°F / 17°C 51% 29.98 in
(1015 mb)
Calm - 10SM
15:55
Clear
82°F / 28°C 63°F / 17°C 51% 29.98 in
(1015 mb)
Calm - 10SM
15:35
Clear
82°F / 28°C 61°F / 16°C 48% 29.98 in
(1015 mb)
Calm - 10SM
15:15
Clear
82°F / 28°C 61°F / 16°C 48% 29.98 in
(1015 mb)
NW 3.5 mph
(NW 6 kph)
- 10SM
14:55
Clear
82°F / 28°C 61°F / 16°C 48% 29.98 in
(1015 mb)
N 3.5 mph
(N 6 kph)
- 10SM
14:35
Clear
82°F / 28°C 61°F / 16°C 48% 29.98 in
(1015 mb)
Calm - 10SM
14:15
Clear
82°F / 28°C 61°F / 16°C 48% 30.01 in
(1016 mb)
Calm - 10SM
13:55
Clear
81°F / 27°C 59°F / 15°C 48% 30.01 in
(1016 mb)
Calm - 10SM
13:35
Clear
81°F / 27°C 61°F / 16°C 51% 30.01 in
(1016 mb)
Calm - 10SM
13:15
Clear
81°F / 27°C 61°F / 16°C 51% 30.01 in
(1016 mb)
Calm - 10SM
12:55
Clear
81°F / 27°C 61°F / 16°C 51% 30.01 in
(1016 mb)
Calm - 10SM
12:35
Clear
79°F / 26°C 61°F / 16°C 54% 30.04 in
(1017 mb)
Calm - 10SM
12:15
Clear
79°F / 26°C 61°F / 16°C 54% 30.04 in
(1017 mb)
SSW 4.6 mph
(SSW 7 kph)
- 10SM
11:55
Clear
79°F / 26°C 61°F / 16°C 54% 30.04 in
(1017 mb)
Calm - 10SM
11:35
Clear
77°F / 25°C 61°F / 16°C 57% 30.04 in
(1017 mb)
Calm - 10SM
11:15
Clear
77°F / 25°C 59°F / 15°C 54% 30.04 in
(1017 mb)
Calm - 10SM
10:55
Clear
75°F / 24°C 59°F / 15°C 57% 30.06 in
(1018 mb)
Calm - 10SM
10:35
Clear
77°F / 25°C 59°F / 15°C 54% 30.04 in
(1017 mb)
Calm - 10SM
10:15
Clear
77°F / 25°C 59°F / 15°C 54% 30.06 in
(1018 mb)
Calm - 10SM
09:55
Clear
77°F / 25°C 59°F / 15°C 54% 30.06 in
(1018 mb)
Calm - 10SM
09:35
Clear
73°F / 23°C 61°F / 16°C 65% 30.04 in
(1017 mb)
Calm - 10SM
09:15
Clear
72°F / 22°C 61°F / 16°C 69% 30.04 in
(1017 mb)
Calm -
08:55
Clear
72°F / 22°C 61°F / 16°C 69% 30.06 in
(1018 mb)
Calm - 10SM
08:35
Clear
70°F / 21°C 61°F / 16°C 73% 30.06 in
(1018 mb)
Calm - 10SM
08:15
Clear
68°F / 20°C 61°F / 16°C 78% 30.06 in
(1018 mb)
Calm - 10SM
07:55
Clear
66°F / 19°C 61°F / 16°C 83% 30.06 in
(1018 mb)
NNW 3.5 mph
(NNW 6 kph)
- 10SM
07:35
Clear
64°F / 18°C 61°F / 16°C 88% 30.06 in
(1018 mb)
Calm - 10SM
07:15
Clear
63°F / 17°C 59°F / 15°C 88% 30.06 in
(1018 mb)
NW 3.5 mph
(NW 6 kph)
- 10SM
06:55
Clear
63°F / 17°C 59°F / 15°C 88% 30.06 in
(1018 mb)
Calm - 10SM
06:35
Clear
59°F / 15°C 59°F / 15°C 100% 30.06 in
(1018 mb)
NW 3.5 mph
(NW 6 kph)
- 10SM
06:15
Clear
55°F / 13°C 55°F / 13°C 100% 30.06 in
(1018 mb)
Calm - 10SM
05:55
Clear
55°F / 13°C 55°F / 13°C 100% 30.06 in
(1018 mb)
Calm - 10SM
05:35
Clear
55°F / 13°C 55°F / 13°C 100% 30.06 in
(1018 mb)
Calm - 10SM
05:15
Clear
54°F / 12°C 54°F / 12°C 100% 30.06 in
(1018 mb)
Calm - 7SM
04:55
Clear
55°F / 13°C 55°F / 13°C 100% 30.06 in
(1018 mb)
Calm - 10SM
04:35
Clear
55°F / 13°C 55°F / 13°C 100% 30.06 in
(1018 mb)
Calm - 10SM
04:15
Clear
55°F / 13°C 55°F / 13°C 100% 30.06 in
(1018 mb)
Calm - 10SM
03:55
Clear
54°F / 12°C 54°F / 12°C 100% 30.06 in
(1018 mb)
Calm - 10SM
03:35
Clear
55°F / 13°C 55°F / 13°C 100% 30.06 in
(1018 mb)
Calm - 10SM
03:15
Clear
55°F / 13°C 55°F / 13°C 100% 30.06 in
(1018 mb)
Calm - 10SM
02:55
Clear
55°F / 13°C 55°F / 13°C 100% 30.06 in
(1018 mb)
Calm - 10SM
02:35
Clear
55°F / 13°C 55°F / 13°C 100% 30.06 in
(1018 mb)
Calm - 10SM
02:15
Clear
54°F / 12°C 54°F / 12°C 100% 30.04 in
(1017 mb)
Calm - 7SM
01:55
Clear
Fog And Mist
55°F / 13°C 55°F / 13°C 100% 30.04 in
(1017 mb)
Calm - 5SM
01:35
Clear
Fog And Mist
55°F / 13°C 55°F / 13°C 100% 30.04 in
(1017 mb)
Calm - 5SM
01:15
Clear
Fog And Mist
55°F / 13°C 55°F / 13°C 100% 30.04 in
(1017 mb)
Calm - 5SM
00:55
Clear
55°F / 13°C 55°F / 13°C 100% 30.06 in
(1018 mb)
Calm - 7SM
00:35
Clear
59°F / 15°C 57°F / 14°C 94% 30.06 in
(1018 mb)
Calm - 10SM
00:15
Clear
59°F / 15°C 59°F / 15°C 100% 30.06 in
(1018 mb)
Calm - 10SM
Time Weather Temperature Dewpoint Humidity Pressure Winds Precip Visibility


Weather for websites

WeatherForYou.com, LLC is not responsible for any damages or problems caused by this service. Current weather conditions are obtained from the closest station including government and personal stations which may have varying degrees of accuracy. Weather forecasts are derived from the NOAA NDFD. Like all things, this site belongs to Jesus Christ... He just trusts us to maintain it. If you have any questions or comments email webmaster@weatherforyou.com

Copyright © 2015, WeatherForYou.com LLC. All rights reserved.